Location: Erdweis
(48.5167°N, 15.3500°E)
Time: 15:28:07
(UTC+00:00)

NOSS 2-2 (C) - Pass Details

Date: 21 January 2021
Orbit: 463 x 1745 km, 63.3° (Epoch: 03 March)

Event Time Altitude Azimuth Distance (km) Brightness Sun altitude
Rises 17:08:49 0° 314° (NW) 2,750 7.4 -14.5°
Reaches altitude 10° 17:11:45 10° 339° (NNW) 2,016 6.3 -14.9°
Maximum altitude 17:14:23 15° 15° (NNE) 1,866 5.7 -15.4°
Enters shadow 17:15:41 14° 32° (NNE) 2,017 5.8 -15.6°
